Location: ????? ???????
(25.7275°N, 32.5929°E)
Time: 10:09:18
(UTC+00:00)

CZ-2C R/B - Pass Details

Date: 02 March 2021
Orbit: 783 x 871 km, 98.2° (Epoch: 15 April)

Event Time Altitude Azimuth Distance (km) Brightness Sun altitude
Rises 16:43:27 0° 13° (NNE) 3,394 5.7 -12.4°
Reaches altitude 10° 16:45:50 10° 14° (NNE) 2,444 5.0 -12.9°
Maximum altitude 16:51:16 84° 102° (ESE) 826 2.6 -14.1°
Drops below altitude 10° 16:56:32 10° 191° (S) 2,376 5.2 -15.3°
Sets 16:58:50 0° 192° (SSW) 3,293 5.9 -15.8°
